Location: Bannatyne
(13.0833°N, 59.5333°W)
Time: 21:59:15
(UTC+00:00)

Vanguard 3 - Pass Details

Date: 26 January 2020
Orbit: 508 x 3263 km, 33.3° (Epoch: 19 February)

Event Time Altitude Azimuth Distance (km) Brightness Sun altitude
Rises 20:49:27 0° 261° (W) 6,477 13.4 14.3°
Reaches altitude 10° 20:53:37 10° 266° (W) 5,722 13.2 13.4°
Maximum altitude 21:11:50 51° 338° (NNW) 3,794 10.7 9.3°
Drops below altitude 10° 21:29:40 10° 51° (NE) 5,580 10.8 5.3°
Sets 21:33:43 0° 56° (ENE) 6,310 11.0 4.3°
